Weather History for Buffalo, SD

Change the Weather History Date:

Saturday, November 5, 2011

  Actual Average Record
Temperature  
Mean Temperature 36 °F 37 °F  
Max Temperature 44 °F 48 °F 73 °F (2001)
Min Temperature 28 °F 26 °F 0 °F (2003)
Degree Days  
Heating Degree Days 29 28  
Month to date heating degree days 139 134  
Since 1 July heating degree days 811 1035  
Cooling Degree Days 0 0  
Month to date cooling degree days 0 0  
Year to date cooling degree days 554 513  
Moisture  
Dew Point 25 °F    
Average Humidity 67    
Maximum Humidity 85    
Minimum Humidity 49    
Precipitation  
Precipitation 0.00 in 0.02 in 0.15 in (2008)
Month to date precipitation 0.00 0.12  
Year to date precipitation 18.24 14.04  
Sea Level Pressure  
Sea Level Pressure 29.39 in    
Wind  
Wind Speed 16 mph (WNW)    
Max Wind Speed 33 mph    
Max Gust Speed 39 mph    
T = Trace of Precipitation, MM = Missing Value Source: NWS Daily Summary

Daily Weather History Graph

Daily Weather History Graph

Search for Another Location

Airport:

Trip Planner

Search our weather history database for the weather conditions in past years. The results will help you decide how hot, cold, wet, or windy it might be!

Date:

Astronomy

Nov. 05, 2011 Rise Set
Actual Time 7:39 AM MDT 5:35 PM MDT
Civil Twilight 7:07 AM MDT 6:06 PM MDT
Nautical Twilight 6:32 AM MDT 6:42 PM MDT
Astronomical Twilight 5:57 AM MDT 7:16 PM MDT
Moon 3:06 PM MDT (11/5) 2:38 AM MDT (11/5)
Length of Visible Light 10h 59m
Length of Day
9h 56m
Waxing Gibbous, 78% of the Moon is Illuminated
Nov 5
Waxing Gibbous
Nov 10
Full
Nov 18
Last Quarter
Nov 24
New
Dec 2
First Quarter

Hourly Weather History & Observations

Time (MDT) Temp. Windchill Dew Point Humidity Pressure Visibility Wind Dir Wind Speed Gust Speed Precip Events Conditions
12:56 AM 44.1 °F 39.5 °F 27.0 °F 51% 29.43 in - South 8.1 mph - N/A   Unknown
1:56 AM 42.1 °F 38.4 °F 27.0 °F 55% 29.41 in - South 5.8 mph - N/A   Unknown
2:56 AM 42.1 °F 38.4 °F 28.0 °F 58% 29.40 in - SSE 5.8 mph - N/A   Unknown
3:56 AM 41.0 °F 36.4 °F 28.0 °F 60% 29.39 in - SSE 6.9 mph - N/A   Unknown
4:56 AM 41.0 °F - 28.9 °F 62% 29.39 in - Calm Calm - N/A   Unknown
5:56 AM 39.0 °F 35.7 °F 28.0 °F 65% 29.37 in - Variable 4.6 mph - N/A   Unknown
6:56 AM 28.9 °F 21.9 °F 25.0 °F 85% 29.39 in - SSW 6.9 mph - N/A   Unknown
7:56 AM 34.0 °F 28.0 °F 25.0 °F 70% 29.37 in - NNW 6.9 mph - N/A   Unknown
8:56 AM 36.0 °F 28.5 °F 21.9 °F 57% 29.36 in - NW 10.4 mph - N/A   Unknown
9:56 AM 36.0 °F 28.0 °F 21.9 °F 57% 29.37 in - NNW 11.5 mph - N/A   Unknown
10:56 AM 37.0 °F 28.1 °F 23.0 °F 57% 29.37 in - WNW 15.0 mph - N/A   Unknown
11:56 AM 37.9 °F 27.1 °F 21.9 °F 53% 29.31 in - NW 23.0 mph 31.1 mph N/A   Unknown
12:56 PM 37.9 °F 27.9 °F 23.0 °F 55% 29.30 in - NW 19.6 mph - N/A   Unknown
1:56 PM 39.0 °F 28.8 °F 24.1 °F 55% 29.29 in - NNW 21.9 mph - N/A   Unknown
2:56 PM 37.9 °F 27.6 °F 24.1 °F 57% 29.34 in - NW 20.7 mph 24.2 mph N/A   Unknown
3:56 PM 37.9 °F 26.8 °F 24.1 °F 57% 29.34 in - NW 24.2 mph 31.1 mph N/A   Unknown
4:56 PM 34.0 °F 23.4 °F 24.1 °F 67% 29.37 in - NNW 17.3 mph 26.5 mph N/A   Unknown
5:56 PM 34.0 °F 23.4 °F 24.1 °F 67% 29.39 in - NW 17.3 mph - N/A   Unknown
6:56 PM 34.0 °F 21.5 °F 24.1 °F 67% 29.42 in - NW 24.2 mph - N/A   Unknown
7:56 PM 34.0 °F 22.4 °F 25.0 °F 70% 29.44 in - WNW 20.7 mph - N/A   Unknown
8:56 PM 34.0 °F 22.4 °F 25.0 °F 70% 29.44 in - WNW 20.7 mph 31.1 mph N/A   Unknown
9:56 PM 32.0 °F 18.6 °F 26.1 °F 79% 29.46 in - WNW 25.3 mph 33.4 mph N/A   Unknown
10:56 PM 30.9 °F 17.8 °F 27.0 °F 85% 29.48 in - WNW 23.0 mph 31.1 mph N/A   Unknown
11:56 PM 30.0 °F 16.0 °F 25.0 °F 82% 29.50 in - WNW 25.3 mph 34.5 mph N/A   Unknown